DECAYED

STARLINK-1675, 46575 (Decayed)

Orbit data source: Space-Track

STARLINK-1675, 46575 was a payload satellite owned by SpaceX/Seattle (US) in LEO that was launched on Tue, 06 Oct 2020 UTC via an FALCON 9 launch vehicle from the Air Force Eastern Test Range (AFETR). Payload-class satellites include a variety of spacecraft equipped with specific instruments for various scientific and technological missions. These include communications satellites like Starlink; space stations such as the ISS; scientific satellites like the Hubble; Earth observation satellites from companies like Planet Labs, Umbra, and HawkEye 360; GPS; miniature CubeSats for education and research; and military/defense satellites.

Not visible in the next 10 days
Identifier
46575, 2020-070AV
Orbit
Decayed
Country
Flag of USUS
Related business
Manufacturer
SpaceX/Seattle
Mission
Decayed Commercial Communications
Bus & Motor
STARLINK, Unknown motor
Mass
260 kg wet, ~248 kg dry
Launch date (UTC)
2020-10-06 (5 years ago)
Launch vehicle
FALCON 9
Launch site
Air Force Eastern Test Range (AFETR)
Object type
Payload
Rocket body
Debris
Shape & HBR
Box + 1 Pan, 10.1 m
Radar Cross Section
13.562 m², Large (>1 m²)

Expand to show TLE details & history
Last TLE update: 4 months ago

TLE from 4 months ago
0 STARLINK-1675
1 46575U 20070AV  25330.98413288  .10942034  12409-4  65916-3 0  9995
2 46575  53.0201 148.8448 0005750 273.1155  86.9234 16.41476381285826
Epoch: 2025-11-26T23:37Z
TLE epoch observation values (Epoch: 2025-11-26T23:37:09.080Z)
Latitude
-0.00003°
Longitude
88.40939°
Altitude
162.605 km
Speed
7.81 km/s
True Right ascension
09h 55m 22s
True Declination
0° 00' 00"
Sunlit
Object was in daylight at epoch
Visualization orbit readout
Latitude
Unknown
Longitude
Unknown
Altitude
Unknown
Speed
Unknown
Apparent Right ascension
Unknown
Apparent Declination
Unknown
Sunlit
N/A
Visualization observer readout
Local Sidereal Time
20:18:04
Azimuth
Unknown
Elevation
Unknown
Doppler factor
Unknown
Orbital elements
Apogee altitude
165.931 km
Perigee altitude
158.409 km
Semi-major axis
6,540.307 km
Eccentricity
0.00058
Inclination
53.0201°
RAAN
148.8448°
Arg. of periapsis
273.1155°
True anomaly
86.9892°
Mean anomaly
86.9234°
Eccentric anomaly
86.9563°
Mean motion
4.10342 °/min
Orbital period
87.73 mins
BSTAR
0.00065916
Loading maneuver chart data...
Computing Atmospheric mass density...

Documentation

Showing up to 5 results
|